Location: Bruchsal
(49.1250°N, 8.5844°E)
Time: 18:17:53
(UTC+02:00)

ISS - Pass Details

Date: 20 April 2026
Orbit: 414 x 424 km, 51.6° (Epoch: 14 May)

Event Time Altitude Azimuth Distance (km) Brightness Sun altitude
Exits shadow 05:27:46 - 202° (SSW) 1,635 -1.2 -9.3°
Reaches altitude 10° 05:28:11 10° 198° (SSW) 1,493 -1.4 -9.3°
Maximum altitude 05:30:57 24° 142° (SE) 914 -1.9 -8.9°
Drops below altitude 10° 05:33:44 10° 87° (E) 1,507 0.2 -8.5°
Sets 05:36:05 0° 73° (ENE) 2,377 2.1 -8.2°
